Weather in Surat Thani

Thailand     9°07′45″N   99°19′54″E
temp.,
°C
wind,
m/s
gust,
m/s
humid.,
%
clouds,
%
prec.,
mm/h
press.,
hPa
HPBL,
m
23 april, fri
fri2301:00+25ssw458784 0.9 1009176
04:00+25ssw458999 0.0 1008168
07:00+25sw348929 0.0 1009192
10:00+30sw336877 0.0 1010888
13:00+34sw244999 0.0 10071258
16:00+33nw1453100 0.0 1005427
19:00+29sw2463100 0.0 1008304
22:00+28ssw347497 0.0 1010236
24 april, sat
sat2401:00+27wsw2378100 0.0 1009201
04:00+26sw4682100 0.0 1007273
07:00+26ssw4583100 0.0 1009282
10:00+27ssw448096 0.0 1011352
13:00+31sw4657100 0.1 10081356
16:00+29s6868100 0.0 1007396
19:00+28ssw5770100 0.0 1009259
22:00+26sw4576100 0.0 1010204
25 april, sun
sun2501:00+26sw3479100 0.0 1009185
04:00+25sw358472 0.0 1008173
07:00+25sw348475 0.0 1010208
10:00+30wsw346377 0.0 1011990
13:00+33e335280 0.0 10081280
16:00+27n3281100 8.8 1008158
19:00+26wnw2379100 14.6 1010136
22:00+26sw348386 0.2 1010128
26 april, mon
mon2601:00+26ssw2383100 0.2 1010175
04:00+26sw3487100 0.1 1009209
07:00+26sw3385100 0.2 1010203
10:00+28sw4475100 0.0 1012490
13:00+29wsw5468100 0.0 1010735
16:00+28wnw347097 0.1 1008431
19:00+28nnw0172100 0.1 1009227
22:00+26wsw237749 0.0 1011159
27 april, tue
tue2701:00+25w238152 0.0 1010136
04:00+24w2280100 0.0 1009132
07:00+25ssw1177100 0.0 1010152
10:00+29s1160100 0.0 1011467
13:00+31ne325299 0.0 1009942
16:00+30e335176 0.0 1007365
19:00+30nne335754 0.0 1008141
22:00+29n236219 0.0 1010247